Weather reports worldwide

Advertisment
AWG, Netherlands (6208): temperature & dewpoint: 14.10.2019 04:00:00 - 20.10.2019 04:00:00 (CEST)AWG, Netherlands (6208): wind speed & gusts: 14.10.2019 04:00:00 - 20.10.2019 04:00:00 (CEST)AWG, Netherlands (6208): wind direction: 14.10.2019 04:00:00 - 20.10.2019 04:00:00 (CEST)AWG, Netherlands (6208): reduced air pressure: 14.10.2019 04:00:00 - 20.10.2019 04:00:00 (CEST)AWG, Netherlands (6208): visibility: 14.10.2019 04:00:00 - 20.10.2019 04:00:00 (CEST)
Date & Time tt [°C] td [°C] ff [km/h] ff [kn] fx [km/h] fx [kn] dd ppp [hPa] vv [km]
20.10.2019 04:00:00 11,2 10,4 26 14 29 16 SSW 1005,4 8
20.10.2019 03:00:00 11,0 10,0 29 16 32 18 SSW 1005,3 10
20.10.2019 02:00:00 11,3 10,0 35 19 36 19 SSW 1004,9 10
20.10.2019 01:00:00 11,2 10,0 34 18 40 21 SSW 1004,8 10
20.10.2019 00:00:00 11,4 10,0 41 22 43 23 SSW 1004,3 10
19.10.2019 23:00:00 11,5 10,1 41 22 40 21 S 1003,8 10
19.10.2019 22:00:00 11,3 9,9 35 19 36 19 S 1003,5 10
19.10.2019 21:00:00 11,9 9,5 35 19 40 21 SSW 1003,2 10
19.10.2019 20:00:00 12,2 9,8 37 20 43 23 SSW 1002,8 10
19.10.2019 19:00:00 12,7 9,5 39 21 43 23 SSW 1002,5 10
19.10.2019 18:00:00 13,3 10,1 35 19 40 21 SSW 1002,3 10
19.10.2019 17:00:00 13,7 9,8 41 22 43 23 SSW 1001,8 10
19.10.2019 16:00:00 13,4 9,7 39 21 43 23 SSW 1001,6 10
19.10.2019 15:00:00 13,4 9,6 39 21 40 21 SSW 1001,6 10
19.10.2019 14:00:00 13,2 10,3 41 22 43 23 SSW 1001,6 10
19.10.2019 13:00:00 12,7 10,5 39 21 43 23 SSW 1001,5 10
19.10.2019 12:00:00 12,7 10,7 41 22 43 23 SSW 1001,8 10
19.10.2019 11:00:00 12,1 10,4 48 26 47 25 SSW 1001,8 10
19.10.2019 10:00:00 11,5 9,8 42 23 47 25 S 1001,4 10
19.10.2019 09:00:00 10,9 9,1 42 23 47 25 S 1001,4 10
19.10.2019 08:00:00 10,7 8,7 48 26 50 27 S 1001,3 10
19.10.2019 07:00:00 10,7 8,3 46 25 47 25 S 1001,5 10
19.10.2019 06:00:00 10,7 8,2 46 25 47 25 SSW 1001,6 10
19.10.2019 05:00:00 10,9 8,2 44 24 47 25 S 1001,7 10
19.10.2019 04:00:00 10,9 8,2 41 22 47 25 S 1001,9 10
19.10.2019 03:00:00 11,1 8,1 48 26 50 27 SSW 1002,0 10
19.10.2019 02:00:00 11,1 8,5 42 23 54 29 SSW 1002,3 10
19.10.2019 01:00:00 11,9 8,6 50 27 58 31 SSW 1002,3 10
19.10.2019 00:00:00 12,1 8,9 35 19 54 29 - 1002,5 10
18.10.2019 23:00:00 11,5 9,0 37 20 68 37 SW 1003,0 2,7
18.10.2019 22:00:00 12,6 8,9 55 30 72 39 - 1001,3 10
18.10.2019 21:00:00 12,4 8,5 59 32 68 37 - 1001,6 10
18.10.2019 20:00:00 12,2 9,8 44 24 61 33 SSW 1001,3 10
18.10.2019 19:00:00 12,5 9,2 46 25 58 31 SSW 1001,2 10
18.10.2019 18:00:00 13,0 9,1 44 24 54 29 SW 1000,9 10
18.10.2019 17:00:00 13,4 8,9 52 28 58 31 SW 1000,2 10
18.10.2019 16:00:00 11,8 9,9 48 26 65 35 SSW 999,0 1,9
18.10.2019 15:00:00 13,6 8,8 52 28 68 37 SSW 998,1 10
18.10.2019 14:00:00 11,4 8,8 37 20 58 31 - 998,7 10
18.10.2019 13:00:00 13,9 11,2 48 26 61 33 S 998,5 4,0
18.10.2019 12:00:00 14,4 11,6 50 27 54 29 S 999,6 10
18.10.2019 11:00:00 13,7 11,5 42 23 50 27 S 1000,5 10
18.10.2019 10:00:00 13,1 11,6 46 25 47 25 S 1001,6 10
18.10.2019 09:00:00 12,9 11,7 44 24 47 25 S 1001,9 10
18.10.2019 08:00:00 12,7 11,8 34 18 36 19 S 1002,6 8
18.10.2019 07:00:00 12,4 11,8 34 18 36 19 S 1003,4 5
18.10.2019 06:00:00 12,1 11,6 39 21 43 23 SE 1004,1 5
18.10.2019 05:00:00 12,2 11,5 39 21 43 23 SE 1004,6 4,8
18.10.2019 04:00:00 12,3 11,5 34 18 36 19 S 1005,2 4,4
18.10.2019 03:00:00 11,8 11,6 39 21 43 23 S 1006,2 2,8
18.10.2019 02:00:00 11,2 11,0 35 19 36 19 S 1006,5 1,7
18.10.2019 01:00:00 12,0 11,5 37 20 40 21 S 1006,8 3,9
18.10.2019 00:00:00 12,2 11,1 34 18 36 19 S 1007,1 8
17.10.2019 23:00:00 12,7 10,7 31 17 32 18 S 1007,6 10
17.10.2019 22:00:00 12,9 10,6 34 18 32 18 S 1008,1 10
17.10.2019 21:00:00 12,9 10,7 34 18 32 18 S 1008,0 10
17.10.2019 20:00:00 13,3 10,6 31 17 32 18 S 1008,2 10
17.10.2019 19:00:00 14,0 10,5 28 15 32 18 S 1008,3 10
17.10.2019 18:00:00 14,4 10,0 29 16 32 18 S 1008,3 10
17.10.2019 17:00:00 14,8 9,9 26 14 25 14 SSW 1008,6 10
17.10.2019 16:00:00 14,8 9,0 22 12 29 16 SSW 1009,0 10
17.10.2019 15:00:00 14,9 8,4 21 11 25 14 - 1009,2 10
17.10.2019 14:00:00 14,4 6,7 22 12 25 14 SW 1009,3 10
17.10.2019 13:00:00 14,3 7,6 21 11 25 14 SW 1009,2 10
17.10.2019 12:00:00 13,9 9,8 21 11 22 12 SW 1009,0 10
17.10.2019 11:00:00 13,9 10,8 18 10 22 12 SSW 1008,7 10
17.10.2019 10:00:00 13,3 11,8 21 11 25 14 - 1008,0 10
17.10.2019 09:00:00 12,9 12,1 16 9 18 10 SW 1007,6 10
17.10.2019 08:00:00 12,7 12,0 16 9 18 10 WSW 1006,8 10
17.10.2019 07:00:00 12,7 11,2 16 9 18 10 WSW 1006,1 10
17.10.2019 06:00:00 12,3 11,7 16 9 18 10 WSW 1005,8 10
17.10.2019 05:00:00 12,1 11,4 18 10 18 10 WSW 1005,5 4,1
17.10.2019 04:00:00 13,3 12,8 16 9 18 10 WSW 1005,2 10
17.10.2019 03:00:00 13,1 13,0 18 10 18 10 SW 1005,0 4,6
17.10.2019 02:00:00 13,1 12,8 18 10 18 10 SW 1004,8 9
17.10.2019 01:00:00 13,2 13,1 22 12 40 21 WSW 1004,6 5
17.10.2019 00:00:00 14,3 14,0 42 23 43 23 SSW 1004,1 2,6
16.10.2019 23:00:00 14,1 13,8 39 21 43 23 SSW 1004,4 2,2
16.10.2019 22:00:00 14,0 13,8 37 20 36 19 S 1004,3 3,5
16.10.2019 21:00:00 13,5 13,3 37 20 36 19 S 1004,3 3,2
16.10.2019 20:00:00 13,2 13,1 39 21 36 19 S 1004,4 2,3
16.10.2019 19:00:00 13,1 12,6 35 19 40 21 SE 1004,6 9
16.10.2019 18:00:00 13,9 12,1 39 21 40 21 S 1004,7 10
16.10.2019 17:00:00 14,3 11,5 39 21 43 23 S 1005,2 10
16.10.2019 16:00:00 14,8 11,3 39 21 43 23 S 1005,7 10
16.10.2019 15:00:00 15,0 11,0 35 19 36 19 S 1005,8 10
16.10.2019 14:00:00 14,2 10,7 29 16 29 16 S 1006,3 10
16.10.2019 13:00:00 13,1 10,8 26 14 32 18 S 1006,8 10
16.10.2019 12:00:00 12,3 10,5 31 17 43 23 - 1007,2 10
16.10.2019 11:00:00 12,4 11,0 39 21 40 21 SSW 1007,1 8
16.10.2019 10:00:00 12,2 11,2 34 18 36 19 SSW 1006,9 7
16.10.2019 09:00:00 12,1 11,2 35 19 36 19 SSW 1006,8 6
16.10.2019 08:00:00 12,4 11,3 34 18 36 19 SSW 1006,6 7
16.10.2019 07:00:00 12,9 11,8 28 15 29 16 SSW 1006,4 9
16.10.2019 06:00:00 13,4 12,4 21 11 25 14 - 1006,4 6
16.10.2019 05:00:00 13,6 12,8 16 9 22 12 SSW 1006,7 3,8
16.10.2019 04:00:00 13,2 12,6 18 10 18 10 SSW 1006,8 10
16.10.2019 03:00:00 13,2 12,5 18 10 22 12 SW 1006,6 10
16.10.2019 02:00:00 13,6 13,1 26 14 25 14 WSW 1006,6 10
16.10.2019 01:00:00 13,7 12,8 24 13 29 16 SSW 1006,1 3,6
16.10.2019 00:00:00 13,7 12,7 24 13 25 14 SSW 1006,5 6
15.10.2019 23:00:00 14,2 12,8 22 12 22 12 SSW 1006,5 10
15.10.2019 22:00:00 14,5 13,0 16 9 22 12 SSW 1006,3 9
15.10.2019 21:00:00 14,6 13,6 13 7 14 8 SW 1006,1 10
15.10.2019 20:00:00 14,2 13,2 15 8 18 10 SW 1005,9 10
15.10.2019 19:00:00 14,4 13,1 15 8 18 10 SW 1005,7 10
15.10.2019 18:00:00 15,1 12,7 21 11 22 12 SW 1005,4 10
15.10.2019 17:00:00 15,7 13,8 18 10 29 16 - 1005,2 10
15.10.2019 16:00:00 15,7 13,7 26 14 32 18 SSW 1004,7 10
15.10.2019 15:00:00 15,6 13,4 29 16 36 19 SSW 1005,1 10
15.10.2019 14:00:00 16,1 13,5 29 16 32 18 - 1005,1 10
15.10.2019 13:00:00 15,5 13,5 24 13 36 19 - 1004,5 10
15.10.2019 12:00:00 15,2 13,2 28 15 36 19 SSW 1004,9 10
15.10.2019 11:00:00 15,5 13,5 26 14 32 18 - 1004,6 10
15.10.2019 10:00:00 14,8 13,1 28 15 32 18 SSW 1003,8 10
15.10.2019 09:00:00 14,3 13,0 31 17 32 18 SSW 1003,9 10
15.10.2019 08:00:00 14,9 13,2 28 15 29 16 SSW 1003,6 10
15.10.2019 07:00:00 15,4 13,5 24 13 36 19 SSE 1003,3 10
15.10.2019 06:00:00 15,3 13,4 39 21 36 19 S 1003,3 10
15.10.2019 05:00:00 14,8 13,3 35 19 32 18 S 1002,9 10
15.10.2019 04:00:00 13,8 13,1 35 19 32 18 SE 1003,4 7
15.10.2019 03:00:00 14,2 13,4 39 21 40 21 SE 1003,7 7
15.10.2019 02:00:00 14,5 13,3 41 22 40 21 ESE 1003,7 9
15.10.2019 01:00:00 14,3 13,2 37 20 36 19 ESE 1005,2 10
15.10.2019 00:00:00 14,2 13,0 35 19 43 23 SE 1005,9 10
14.10.2019 23:00:00 14,7 12,5 41 22 40 21 E 1005,4 10
14.10.2019 22:00:00 14,6 12,3 39 21 40 21 E 1006,7 10
14.10.2019 21:00:00 14,2 12,2 34 18 36 19 E 1007,6 10
14.10.2019 20:00:00 14,2 11,9 35 19 40 21 ESE 1008,7 10
14.10.2019 19:00:00 13,9 12,0 41 22 40 21 E 1008,2 10
14.10.2019 18:00:00 13,9 11,4 22 12 29 16 E 1010,1 10
14.10.2019 17:00:00 13,9 11,0 29 16 32 18 E 1010,2 10
14.10.2019 16:00:00 13,5 11,1 16 9 22 12 - 1011,4 10
14.10.2019 15:00:00 13,7 11,7 18 10 18 10 E 1012,6 10
14.10.2019 14:00:00 13,6 11,6 13 7 14 8 E 1012,9 10
14.10.2019 13:00:00 13,4 11,2 13 7 18 10 ESE 1013,4 10
14.10.2019 12:00:00 13,1 11,3 15 8 18 10 S 1014,0 10
14.10.2019 11:00:00 13,3 11,2 16 9 14 8 S 1014,0 10
14.10.2019 10:00:00 12,9 10,7 13 7 18 10 SSW 1013,6 10
14.10.2019 09:00:00 12,9 11,0 21 11 22 12 - 1013,2 10
14.10.2019 08:00:00 12,9 11,6 15 8 18 10 SW 1012,8 10
14.10.2019 07:00:00 13,0 10,6 18 10 22 12 WSW 1012,1 10
14.10.2019 06:00:00 13,6 10,6 22 12 25 14 W 1011,7 10
14.10.2019 05:00:00 13,5 10,3 22 12 29 16 WSW 1011,3 10
14.10.2019 04:00:00 13,8 10,2 31 17 32 18 WSW 1010,6 10

tt = temperature
td = dewpoint
ff = wind speed
fx = gusts
dd = wind direction
ppp = reduced air pressure
vv = visibility

Next stations